Regional Weather Roundup
Issued by NWS

Home | Current Version | Previous Version | Graphics & Text | Print | Product List | Glossary On
Versions: 1 2 3 4 5 6 7 8 9 10 11 12 13 14 15 16 17 18 19 20 21 22 23 24 25 26 27 28 29 30 31 32 33 34 35 36 37 38 39 40 41 42 43 44 45 46 47 48 49 50
000
ASUS43 KTOP 250059
RWRKS

WEATHER ROUNDUP FOR KANSAS
NATIONAL WEATHER SERVICE GOODLAND KS
800 PM CDT SAT SEP 24 2016

NOTE:  "FAIR" INDICATES FEW OR NO CLOUDS BELOW 12,000 FEET WITH NO
SIGNIFICANT WEATHER AND/OR OBSTRUCTIONS TO VISIBILITY.

KSZ001>006-013>018-027>032-041>047-250200-
NORTHWEST KANSAS

CITY           SKY/WX    TMP DP  RH WIND       PRES   REMARKS
GOODLAND       CLEAR     64  40  41 N3        30.01R
HAYS           CLOUDY    70  57  64 SE5       29.92R
HILL CITY      PTCLDY    66  60  81 CALM      29.95R
RUSSELL        CLOUDY    70  67  90 CALM      29.90S
$$

KSZ061>065-074>080-084>089-250200-
SOUTHWEST KANSAS

CITY           SKY/WX    TMP DP  RH WIND       PRES   REMARKS
DODGE CITY     LGT RAIN  71  66  84 VRB3      29.94R
ELKHART          N/A     71  37  28 NE6         N/A
GARDEN CITY    PTCLDY    67  43  41 N8        29.96R
GREAT BEND     CLOUDY    70  61  73 S12       29.91R
LIBERAL        CLEAR     72  43  35 N9        29.95R
$$

KSZ066>073-081>083-090>101-250200-
SOUTHEAST KANSAS

CITY           SKY/WX    TMP DP  RH WIND       PRES   REMARKS
CHANUTE        CLOUDY    79  69  71 SE7       29.94R
COFFEYVILLE    CLOUDY    81  68  64 S6        29.95R
HUTCHINSON     TSTM      69  68  96 S8        29.94S FOG
MEDICINE LODGE   N/A     66  65  96 S10         N/A
NEWTON         LGT RAIN N/A N/A N/A S9        29.96F
PARSONS        CLOUDY    81  69  67 SE3       29.96R
WICHITA INTL   TSTM      68  68 100 CALM      29.95F
WICHITA JABRA  LGT RAIN  69  68  96 SW10      29.95S
WICHITA MCCONL CLOUDY    67  66  94 S5        29.96F THUNDER
WINFIELD       HVY RAIN  67  66  97 W10       30.01R FOG
$$

KSZ007>012-019>026-033>040-048>060-102>105-250200-
NORTHEAST KANSAS

CITY           SKY/WX    TMP DP  RH WIND       PRES   REMARKS
CONCORDIA      CLOUDY    69  69 100 SE10      29.92R
EMPORIA        LGT RAIN  72  71  97 CALM      29.92S
LAWRENCE       CLOUDY    74  68  81 NW10      29.97R
MANHATTAN      CLOUDY    69  67  93 E3        29.91F
OLATHE IND     CLOUDY    80  70  71 SE6       29.96R
OLATHE EXE     PTCLDY    79  69  71 SE5       29.96R
SALINA         LGT RAIN  70  68  93 SW3       29.94R
TOPEKA BILLARD RAIN      69  67  93 N8        29.95S FOG
TOPEKA FORBES  LGT RAIN  71  69  93 N8        29.95F
$$



USA.gov is the U.S. government's official web portal to all federal, state and local government web resources and services.